Notices

What's New in latest Release from April 7th, 2021:

- Updated Glossary, including Speed of Maximum Gust, and Total Hourly Precipitation

- Updated national and regional climate services offices contacts and prices information

- Addition of station inventory lists for 1981-2010, 1971-2000, and 1961-1990 Normals.

If you haven't already, please take our survey and provide feedback about our website: https://eccc.sondage-survey.ca/f/LanguageSelection.aspx?s=442ca660-fcf1-47c0-95a9-59707d6fd709

Hourly Data Report for November 18, 2016

CARBERRY CS
MANITOBA

49°54'20.900" N
99°21'26.800" W
383.50 m
5010547
71170
WZE

Download Data

Hourly Data (November 2016)
Hourly Data Report for November 18, 2016
TIME
LST
Temp Definition
°C
Dew Point Definition
°C
Rel Hum Definition
%
Precip. Amount Definition
mm

Wind Dir Definition
10's deg

Wind Spd Definition
km/h
Visibility Definition
km
Stn Press Definition
kPa
Hmdx Definition


Wind Chill Definition


Weather Definition


00:00 -1.4 -4.7 78 0.0 35 10   97.75   -5 LegendNANA
01:00 -1.7 -5.1 77 0.0 33 11   97.80   -6 LegendNANA
02:00 -2.2 -4.7 83 0.0 32 9   97.80   -6 LegendNANA
03:00 -1.7 -4.4 81 0.0 32 8   97.88   -5 LegendNANA
04:00 -1.6 -4.1 83 0.0 30 9   97.88   -5 LegendNANA
05:00 -1.2 -4.8 77 0.0 32 10   97.88   -5 LegendNANA
06:00 -2.5 -5.3 81 0.0 32 11   97.94   -7 LegendNANA
07:00 -3.0 -6.4 77 0.0 32 15   97.95   -8 LegendNANA
08:00 -2.7 -5.7 80 0.0 33 15   98.01   -8 LegendNANA
09:00 -2.1 -5.0 80 0.0 36 14   98.02   -7 LegendNANA
10:00 -2.0 -5.6 76 0.0 1 12   98.05   -6 LegendNANA
11:00 -1.8 -6.0 73 0.0 1 19   98.08   -7 LegendNANA
12:00 -1.4 -6.4 68 0.0 36 17   98.04   -7 LegendNANA
13:00 -1.3 -7.0 65 0.0 36 19   98.00   -7 LegendNANA
14:00 -1.0 -7.2 63 0.0 35 14   97.94   -5 LegendNANA
15:00 -0.6 -7.7 58 0.0 34 16   97.93   -5 LegendNANA
16:00 -0.9 -8.6 56 0.0 34 23   98.00   -7 LegendNANA
17:00 -2.4 -8.0 65 0.0 1 18   98.10   -8 LegendNANA
18:00 -3.7 -8.9 67 0.0 36 13   98.14   -9 LegendNANA
19:00 -4.0 -9.5 66 0.0 35 12   98.16   -9 LegendNANA
20:00 -4.8 -9.4 70 0.0 35 13   98.21   -10 LegendNANA
21:00 -6.0 -10.9 68 0.0 34 13   98.27   -11 LegendNANA
22:00 -7.2 -12.1 68 0.0 31 14   98.28   -13 LegendNANA
23:00 -7.8 -12.0 72 0.0 30 15   98.31   -14 LegendNANA

Notes on Data Quality.

Legend

  • E = Estimated
  • M = Missing
  • NA = Not Available*
  • [empty] = Indicates an unobserved value
Date modified: